Location: Enborne
(51.3833°N, 1.3667°W)
Time: 03:42:42
(UTC+00:00)

In-Cosmos 22 - Pass Details

Date: 18 September 2020
Orbit: 785 x 877 km, 81.2° (Epoch: 18 October)

Event Time Altitude Azimuth Distance (km) Brightness Sun altitude
Rises 19:07:06 0° 349° (N) 3,290 7.6 -9.3°
Reaches altitude 10° 19:09:32 10° 354° (N) 2,357 6.8 -9.7°
Maximum altitude 19:14:43 54° 72° (ENE) 955 4.2 -10.5°
Drops below altitude 10° 19:19:56 10° 150° (SSE) 2,362 6.1 -11.2°
Enters shadow 19:21:25 - 154° (SSE) 2,930 6.6 -11.5°
